User: anonymous   Login
Location: Unspecified
(0.0000°N, 0.0000°E)
Time: 11:11:41
(UTC+00:00)
Language:

FAST 2 (USA 228) - Orbit

View from above orbital plane
View from above orbital plane
View from above satellite
View from above satellite

Ground track
Ground track

The orbit data is extracted from the following two-line orbital elements,

1 37380U 10062M   23036.91260601  .00001303  00000-0  17896-3 0  9990
2 37380  71.9739 356.2917 0018807 259.7605 100.1437 14.80054674183906
Epoch (UTC): 05 February 2023 21:54:09
Eccentricity: 0.0018807
inclination: 71.9739°
perigee height: 616 km
apogee height: 642 km
right ascension of ascending node: 356.2917°
argument of perigee: 259.7605°
revolutions per day: 14.80054674
mean anomaly at epoch: 100.1437°
orbit number at epoch: 18390

The dashed part of the orbit path shows where the satellite is in the earth's shadow,  

DLR